Home   Weather   Noble   Past weeks
Flag for USA

Past Weather in Noble, Oklahoma, USA — Yesterday and Last 2 Weeks

Now
66 °F

Mild.


Feels Like: 66 °F
Forecast: 64 / 30 °F
Wind: N/A

Location: MADIS Weather Station E5982 (APRSWXNET)

Current Time: Feb 28, 2020 at 3:25:37 pm

Latest Report: Feb 28, 2020 at 2:45 pm


Visibility: N/A

Pressure: 29.03 "Hg

Humidity: 23%

Dew Point: 27 °F

Location of NobleLocation

Past Weather in Noble — Graph

°F

Noble Temperature Yesterday

Maximum temperature yesterday: 63 °F (at 2:45 pm)
Minimum temperature yesterday: 38 °F (at 9:15 am)
Average temperature yesterday: 54 °F

High & Low Weather Summary for the Past Weeks

 TemperatureHumidityPressure
High66 °F (Feb 17, 2:05 pm)100% (Feb 16, 7:50 am)29.49 "Hg (Feb 16, 7:50 am)
Low20 °F (Feb 21, 6:10 am)19% (Feb 27, 4:30 pm)28.37 "Hg (Feb 24, 6:25 am)
Average45 °F64%28.94 "Hg
* Reported Feb 13 1:10 pm — Feb 28 1:45 pm, Noble. Weather by CustomWeather, © 2020

Note: Actual official high and low records may vary slightly from our data, if they occured in-between our weather recording intervals... More about our weather records

Noble Weather History for the Previous 24 Hours

Scroll right to see more
 ConditionsComfort  
Time TempWeatherWind HumidityBarometerVisibility
1:45 pm
Fri, Feb 28
64 °FMild.N/A25%29.06 "HgN/A
1:25 pm63 °FMild.N/A26%29.07 "HgN/A
1:20 pm63 °FMild.N/A25%29.07 "HgN/A
12:40 pm61 °FRefreshingly cool.N/A29%29.09 "HgN/A
12:25 pm59 °FRefreshingly cool.N/A29%29.10 "HgN/A
12:15 pm60 °FRefreshingly cool.N/A29%29.11 "HgN/A
11:25 am56 °FRefreshingly cool.N/A36%29.13 "HgN/A
11:10 am54 °FCool.N/A36%29.12 "HgN/A
11:05 am54 °FCool.N/A35%29.12 "HgN/A
10:45 am53 °FCool.N/A40%29.13 "HgN/A
10:30 am52 °FCool.N/A40%29.12 "HgN/A
10:15 am51 °FCool.N/A48%29.12 "HgN/A
9:15 am44 °FQuite cool.N/A67%29.11 "HgN/A
8:55 am42 °FQuite cool.N/A73%29.11 "HgN/A
8:40 am41 °FQuite cool.N/A74%29.10 "HgN/A
8:25 am39 °FChilly.N/A78%29.09 "HgN/A
8:15 am40 °FQuite cool.N/A77%29.09 "HgN/A
7:30 am35 °FChilly.N/A90%29.08 "HgN/A
7:05 am34 °FChilly.N/A92%29.09 "HgN/A
6:30 am34 °FChilly.N/A92%29.08 "HgN/A
6:00 am33 °FChilly.N/A92%29.08 "HgN/A
5:40 am33 °FChilly.N/A92%29.07 "HgN/A
5:25 am34 °FChilly.N/A92%29.07 "HgN/A
5:20 am34 °FChilly.N/A91%29.07 "HgN/A
4:00 am35 °FChilly.N/A88%29.07 "HgN/A
3:10 am37 °FChilly.N/A83%29.07 "HgN/A
2:50 am38 °FChilly.N/A82%29.07 "HgN/A
2:20 am39 °FChilly.N/A79%29.07 "HgN/A
1:45 am40 °FQuite cool.N/A76%29.07 "HgN/A
1:10 am42 °FQuite cool.N/A72%29.07 "HgN/A
12:05 am45 °FCool.N/A66%29.05 "HgN/A
11:50 pm
Thu, Feb 27
46 °FCool.N/A63%29.03 "HgN/A
11:25 pm47 °FCool.N/A57%29.02 "HgN/A
11:15 pm48 °FCool.N/A56%29.02 "HgN/A
9:40 pm49 °FCool.N/A47%29.00 "HgN/A
9:20 pm50 °FCool.N/A43%28.99 "HgN/A
8:45 pm51 °FCool.N/A34%28.97 "HgN/A
8:35 pm51 °FCool.N/A33%28.97 "HgN/A
8:15 pm51 °FCool.N/A33%28.95 "HgN/A
7:45 pm50 °FCool.N/A33%28.94 "HgN/A
7:10 pm51 °FCool.N/A32%28.93 "HgN/A
6:25 pm56 °FRefreshingly cool.N/A24%28.93 "HgN/A
6:00 pm58 °FRefreshingly cool.N/A22%28.92 "HgN/A
5:45 pm59 °FRefreshingly cool.N/A22%28.92 "HgN/A
5:30 pm60 °FRefreshingly cool.N/A21%28.92 "HgN/A
5:15 pm60 °FRefreshingly cool.N/A21%28.92 "HgN/A
4:40 pm61 °FRefreshingly cool.N/A20%28.91 "HgN/A
4:30 pm61 °FRefreshingly cool.N/A19%28.92 "HgN/A
4:15 pm62 °FRefreshingly cool.N/A20%28.92 "HgN/A
3:50 pm62 °FRefreshingly cool.N/A20%28.93 "HgN/A
3:05 pm62 °FRefreshingly cool.N/A20%28.93 "HgN/A
Weather by CustomWeather, © 2020

See weather overview

Advertising